When you browse on this site, cookies collect data to enhance your experience and personalize the content and advertising you see.
Visit our Privacy Policy to learn more. By continuing to use the site, you agree to this use of cookies and data.
  • en France
  • Liste des pays
  • À 7 jours
  • Température de l'eau
  • Carte satellitaire
  • Carte météo
  • Widgets météo
  • user-avatar
    Se connecter

    Météo par heure à Speshnevo

    Ce jour, 21 Mai, Mardi

    Heure Température Précipitation Vent Pression Humidité
    00:00 +14°C° 0 mm 2 m/s 742 mmHg 83%
    01:00 +13°C° 0 mm 2 m/s 742 mmHg 84%
    02:00 +13°C° 0 mm 2 m/s 742 mmHg 86%
    03:00 +13°C° 0 mm 2 m/s 742 mmHg 86%
    04:00 +13°C° 0 mm 2 m/s 742 mmHg 86%
    05:00 +14°C° 0 mm 2 m/s 743 mmHg 86%
    06:00 +15°C° 0 mm 2 m/s 743 mmHg 81%
    07:00 +17°C° 0 mm 2 m/s 743 mmHg 75%
    08:00 +19°C° 0 mm 2 m/s 743 mmHg 70%
    09:00 +20°C° 0 mm 2 m/s 742 mmHg 66%
    10:00 +21°C° 0 mm 3 m/s 742 mmHg 62%
    11:00 +22°C° 0 mm 3 m/s 742 mmHg 58%
    12:00 +22°C° 0 mm 4 m/s 742 mmHg 57%
    13:00 +22°C° 0 mm 4 m/s 742 mmHg 57%
    14:00 +22°C° 0 mm 4 m/s 741 mmHg 56%
    15:00 +22°C° 0 mm 4 m/s 741 mmHg 60%
    16:00 +21°C° 0 mm 4 m/s 740 mmHg 63%
    17:00 +21°C° 0 mm 3 m/s 740 mmHg 67%
    18:00 +19°C° 0 mm 3 m/s 740 mmHg 70%
    19:00 +17°C° 0 mm 3 m/s 740 mmHg 74%
    20:00 +14°C° 0 mm 3 m/s 740 mmHg 78%
    21:00 +14°C° 0 mm 3 m/s 739 mmHg 79%
    22:00 +13°C° 0 mm 3 m/s 739 mmHg 80%
    23:00 +12°C° 0 mm 3 m/s 739 mmHg 81%

    Demain, 22 Mai, Mercredi

    Heure Température Précipitation Vent Pression Humidité
    00:00 +12°C° 0 mm 3 m/s 739 mmHg 83%
    01:00 +12°C° 0 mm 3 m/s 739 mmHg 84%
    02:00 +11°C° 0 mm 3 m/s 738 mmHg 85%
    03:00 +12°C° 0 mm 3 m/s 738 mmHg 86%
    04:00 +12°C° 0 mm 3 m/s 738 mmHg 86%
    05:00 +13°C° 0 mm 2 m/s 738 mmHg 87%
    06:00 +13°C° 0.1 mm 3 m/s 737 mmHg 85%
    07:00 +16°C° 0.1 mm 3 m/s 737 mmHg 84%
    08:00 +17°C° 0.1 mm 4 m/s 737 mmHg 83%
    09:00 +17°C° 0.1 mm 4 m/s 737 mmHg 81%
    10:00 +17°C° 0.1 mm 4 m/s 737 mmHg 80%
    11:00 +17°C° 0.1 mm 5 m/s 736 mmHg 79%
    12:00 +19°C° 0 mm 5 m/s 736 mmHg 76%
    13:00 +20°C° 0 mm 4 m/s 736 mmHg 74%
    14:00 +20°C° 0 mm 4 m/s 735 mmHg 72%
    15:00 +20°C° 0.2 mm 4 m/s 735 mmHg 73%
    16:00 +20°C° 0.2 mm 4 m/s 735 mmHg 75%
    17:00 +20°C° 0.2 mm 4 m/s 734 mmHg 77%
    18:00 +19°C° 0 mm 4 m/s 734 mmHg 82%
    19:00 +18°C° 0 mm 3 m/s 734 mmHg 87%
    20:00 +16°C° 0 mm 3 m/s 734 mmHg 92%
    21:00 +16°C° 0.2 mm 3 m/s 734 mmHg 93%
    22:00 +14°C° 0.2 mm 3 m/s 733 mmHg 94%
    23:00 +14°C° 0.2 mm 3 m/s 733 mmHg 95%

    Après-demain, 23 Mai, Jeudi

    Heure Température Précipitation Vent Pression Humidité
    00:00 +14°C° 0.2 mm 3 m/s 733 mmHg 95%
    01:00 +13°C° 0.2 mm 3 m/s 733 mmHg 96%
    02:00 +13°C° 0.2 mm 3 m/s 733 mmHg 96%
    03:00 +13°C° 0 mm 3 m/s 733 mmHg 95%
    04:00 +13°C° 0 mm 3 m/s 733 mmHg 94%
    05:00 +15°C° 0 mm 2 m/s 733 mmHg 93%
    06:00 +16°C° 0 mm 3 m/s 733 mmHg 89%
    07:00 +18°C° 0 mm 3 m/s 733 mmHg 85%
    08:00 +20°C° 0 mm 3 m/s 733 mmHg 80%
    09:00 +21°C° 0.2 mm 4 m/s 733 mmHg 74%
    10:00 +22°C° 0.2 mm 4 m/s 733 mmHg 67%
    11:00 +23°C° 0.2 mm 4 m/s 733 mmHg 61%
    12:00 +23°C° 0 mm 4 m/s 733 mmHg 60%
    13:00 +25°C° 0 mm 4 m/s 732 mmHg 59%
    14:00 +25°C° 0 mm 4 m/s 732 mmHg 58%
    15:00 +23°C° 0.4 mm 4 m/s 732 mmHg 63%
    16:00 +23°C° 0.4 mm 4 m/s 732 mmHg 68%
    17:00 +22°C° 0.4 mm 4 m/s 732 mmHg 73%
    18:00 +20°C° 0.1 mm 3 m/s 732 mmHg 77%
    19:00 +19°C° 0.1 mm 3 m/s 732 mmHg 82%
    20:00 +17°C° 0.1 mm 2 m/s 732 mmHg 86%
    21:00 +17°C° 0 mm 2 m/s 733 mmHg 87%
    22:00 +16°C° 0 mm 2 m/s 733 mmHg 88%
    23:00 +16°C° 0 mm 1 m/s 733 mmHg 89%

    24 Mai, Vendredi

    Heure Température Précipitation Vent Pression Humidité
    00:00 +15°C° 0 mm 1 m/s 733 mmHg 90%
    01:00 +15°C° 0 mm 1 m/s 733 mmHg 90%
    02:00 +15°C° 0 mm 1 m/s 733 mmHg 90%
    03:00 +15°C° 0.1 mm 1 m/s 733 mmHg 91%
    04:00 +15°C° 0.1 mm 1 m/s 733 mmHg 91%
    05:00 +16°C° 0.1 mm 1 m/s 733 mmHg 91%
    06:00 +18°C° 0.9 mm 1 m/s 734 mmHg 87%
    07:00 +19°C° 0.9 mm 1 m/s 734 mmHg 84%
    08:00 +20°C° 0.9 mm 2 m/s 734 mmHg 80%
    09:00 +20°C° 1.8 mm 2 m/s 734 mmHg 76%
    10:00 +21°C° 1.8 mm 2 m/s 734 mmHg 72%
    11:00 +23°C° 1.8 mm 2 m/s 734 mmHg 69%
    12:00 +23°C° 0.8 mm 2 m/s 734 mmHg 68%
    13:00 +23°C° 0.8 mm 2 m/s 734 mmHg 67%
    14:00 +24°C° 0.8 mm 2 m/s 734 mmHg 66%
    15:00 +23°C° 0.6 mm 2 m/s 733 mmHg 70%
    16:00 +23°C° 0.6 mm 2 m/s 733 mmHg 73%
    17:00 +23°C° 0.6 mm 2 m/s 733 mmHg 77%
    18:00 +20°C° 0.1 mm 2 m/s 733 mmHg 80%
    19:00 +19°C° 0.1 mm 3 m/s 733 mmHg 84%
    20:00 +18°C° 0.1 mm 3 m/s 733 mmHg 88%
    21:00 +17°C° 0.1 mm 3 m/s 732 mmHg 89%
    22:00 +16°C° 0.1 mm 3 m/s 732 mmHg 90%
    23:00 +16°C° 0.1 mm 3 m/s 732 mmHg 92%

    25 Mai, Samedi

    Heure Température Précipitation Vent Pression Humidité
    00:00 +16°C° 1.8 mm 3 m/s 732 mmHg 93%
    01:00 +14°C° 1.8 mm 3 m/s 732 mmHg 94%
    02:00 +15°C° 1.8 mm 2 m/s 732 mmHg 94%
    03:00 +15°C° 0.1 mm 2 m/s 732 mmHg 94%
    04:00 +15°C° 0.1 mm 2 m/s 732 mmHg 94%
    05:00 +16°C° 0.1 mm 2 m/s 732 mmHg 93%
    06:00 +17°C° 0.3 mm 3 m/s 732 mmHg 89%
    07:00 +18°C° 0.3 mm 4 m/s 732 mmHg 86%
    08:00 +20°C° 0.3 mm 4 m/s 731 mmHg 82%
    09:00 +20°C° 0.1 mm 4 m/s 731 mmHg 77%
    10:00 +21°C° 0.1 mm 4 m/s 731 mmHg 73%
    11:00 +21°C° 0.1 mm 4 m/s 731 mmHg 69%
    12:00 +22°C° 0.2 mm 5 m/s 731 mmHg 68%
    13:00 +22°C° 0.2 mm 5 m/s 731 mmHg 68%
    14:00 +23°C° 0.2 mm 5 m/s 730 mmHg 67%
    15:00 +22°C° 0.9 mm 4 m/s 730 mmHg 71%
    16:00 +21°C° 0.9 mm 4 m/s 730 mmHg 75%
    17:00 +21°C° 0.9 mm 3 m/s 729 mmHg 79%
    18:00 +19°C° 0.4 mm 3 m/s 729 mmHg 83%
    19:00 +18°C° 0.4 mm 3 m/s 729 mmHg 86%
    20:00 +17°C° 0.4 mm 2 m/s 729 mmHg 89%
    21:00 +16°C° 0 mm 2 m/s 729 mmHg 90%
    22:00 +16°C° 0 mm 2 m/s 728 mmHg 92%
    23:00 +15°C° 0 mm 2 m/s 728 mmHg 93%

    26 Mai, Dimanche

    Heure Température Précipitation Vent Pression Humidité
    00:00 +15°C° 0 mm 2 m/s 728 mmHg 94%
    01:00 +15°C° 0 mm 2 m/s 728 mmHg 94%
    02:00 +14°C° 0 mm 1 m/s 728 mmHg 95%
    03:00 +14°C° 0 mm 1 m/s 728 mmHg 95%
    04:00 +15°C° 0 mm 2 m/s 728 mmHg 95%
    05:00 +15°C° 0 mm 2 m/s 728 mmHg 96%
    06:00 +16°C° 0 mm 2 m/s 729 mmHg 94%
    07:00 +16°C° 0 mm 3 m/s 729 mmHg 92%
    08:00 +17°C° 0 mm 3 m/s 729 mmHg 90%
    09:00 +17°C° 0.1 mm 4 m/s 729 mmHg 87%
    10:00 +18°C° 0.1 mm 4 m/s 729 mmHg 83%
    11:00 +17°C° 0.1 mm 5 m/s 729 mmHg 80%
    12:00 +19°C° 0 mm 5 m/s 729 mmHg 74%
    13:00 +20°C° 0 mm 5 m/s 729 mmHg 67%
    14:00 +21°C° 0 mm 6 m/s 729 mmHg 60%
    15:00 +21°C° 0 mm 5 m/s 730 mmHg 64%
    16:00 +21°C° 0 mm 4 m/s 730 mmHg 67%
    17:00 +21°C° 0 mm 3 m/s 730 mmHg 71%
    18:00 +19°C° 0.2 mm 3 m/s 730 mmHg 78%
    19:00 +17°C° 0.2 mm 3 m/s 731 mmHg 84%
    20:00 +14°C° 0.2 mm 3 m/s 731 mmHg 91%
    21:00 +14°C° 0 mm 3 m/s 731 mmHg 91%
    22:00 +13°C° 0 mm 3 m/s 732 mmHg 91%
    23:00 +12°C° 0 mm 3 m/s 732 mmHg 91%
    Voir plus